Regional Weather Roundup
Issued by NWS

Home | Current Version | Previous Version | Text Only | Print | Product List | Glossary On
Versions: 1 2 3 4 5 6 7 8 9 10 11 12 13 14 15 16 17 18 19 20 21 22 23 24 25 26 27 28 29 30 31 32 33 34 35 36 37 38 39 40 41 42 43 44 45 46 47 48 49 50
000
ASUS43 KTOP 201008
RWRKS

WEATHER ROUNDUP FOR KANSAS
NATIONAL WEATHER SERVICE GOODLAND KS
500 AM CDT FRI OCT 20 2017

NOTE:  "FAIR" INDICATES FEW OR NO CLOUDS BELOW 12,000 FEET WITH NO
SIGNIFICANT WEATHER AND/OR OBSTRUCTIONS TO VISIBILITY.

KSZ001>006-013>018-027>032-041>047-201100-
NORTHWEST KANSAS

CITY           SKY/WX    TMP DP  RH WIND       PRES   REMARKS
GOODLAND       MOCLDY    53  47  79 S15       29.81F
HAYS           FAIR      58  48  69 S16       29.90F
HILL CITY      FAIR      59  47  64 S13G25    29.87F
RUSSELL        FAIR      57  51  80 S13       29.92F
$$

KSZ061>065-074>080-084>089-201100-
SOUTHWEST KANSAS

CITY           SKY/WX    TMP DP  RH WIND       PRES   REMARKS
DODGE CITY     FAIR      54  47  77 S14       29.93F
ELKHART          N/A     56  54  94 S9          N/A
GARDEN CITY    FAIR      54  45  71 SE12      29.88F
GREAT BEND     FAIR      59  49  69 S18       29.93F
LIBERAL        MOCLDY    60  48  64 S17       29.90F
PRATT          FAIR      58  48  70 S17G24    29.97F
$$

KSZ066>073-081>083-090>101-201100-
SOUTHEAST KANSAS

CITY           SKY/WX    TMP DP  RH WIND       PRES   REMARKS
CHANUTE        FAIR      54  51  90 SE9       30.10S
COFFEYVILLE    FAIR      54  51  90 SE6       30.09F
HUTCHINSON     FAIR      57  53  86 S10       29.99F
MEDICINE LODGE   N/A     55  49  80 E7        29.99F
NEWTON         FAIR      58  53  84 S16       30.03S
PARSONS        FAIR      56  51  84 CALM      30.11S
WICHITA INTL   FAIR      57  54  89 S14       30.02F
WICHITA JABRA  FAIR      57  55  93 S12       30.03S
WICHITA MCCONL CLEAR     56  52  86 S9        30.03S
WINFIELD       FAIR      58  55  90 S10       30.06S
$$

KSZ007>012-019>026-033>040-048>060-102>105-201100-
NORTHEAST KANSAS

CITY           SKY/WX    TMP DP  RH WIND       PRES   REMARKS
CONCORDIA      FAIR      60  52  74 S21G28    29.94F
EMPORIA        FAIR      57  52  83 S15       30.05S
LAWRENCE       FAIR      56  52  86 S7        30.06F
MANHATTAN      FAIR      61  53  75 SW10      30.00F
MARYSVILLE     FAIR      55  52  88 SE6       29.98F
OLATHE IND     FAIR      55  52  89 S9        30.09R
OLATHE EXE     FAIR      55  51  86 S8        30.09R
SALINA         FAIR      62  53  72 S14       29.97F
TOPEKA BILLARD FAIR      61  55  81 S12       30.03F
TOPEKA FORBES  FAIR      60  54  80 S9        30.05S
$$



USA.gov is the U.S. government's official web portal to all federal, state and local government web resources and services.